Location: Newark
(34.4697°S, 57.8467°W)
Time: 08:06:10
(UTC+00:00)

N. Korean satellite - Pass Details

Date: 26 July 2019
Orbit: 457 x 507 km, 97.2° (Epoch: 18 August)

Event Time Altitude Azimuth Distance (km) Brightness Sun altitude
Rises 08:36:10 0° 33° (NNE) 2,583 10.8 -27.4°
Reaches altitude 10° 08:38:24 10° 44° (NE) 1,702 9.9 -26.9°
Maximum altitude 08:41:39 31° 106° (ESE) 904 8.4 -26.3°
Enters shadow 08:43:04 23° 146° (SE) 1,099 8.6 -26.0°
